Change the Weather History Date:

Tuesday, October 2, 2012

  Actual Average Record
Temperature  
Mean Temperature 66 °F -  
Max Temperature 80 °F 74 °F 87 °F (1932)
Min Temperature 52 °F 42 °F 27 °F (1950)
Cooling Degree Days 2    
Growing Degree Days 16 (Base 50)    
Moisture  
Dew Point 35 °F    
Average Humidity 39    
Maximum Humidity 83    
Minimum Humidity 15    
Precipitation  
Precipitation 0.00 in - - ()
Sea Level Pressure  
Sea Level Pressure 30.02 in    
Wind  
Wind Speed 9 mph (WNW)    
Max Wind Speed 30 mph    
Max Gust Speed 39 mph    
Visibility 8 miles    
Events      
Averages and records for this station are not official NWS values.
T = Trace of Precipitation, MM = Missing Value Source: NWS Daily Summary

Daily Weather History Graph

Daily Weather History Graph

Search for Another Location

Airport or City:

Trip Planner

Search our weather history database for the weather conditions in past years. The results will help you decide how hot, cold, wet, or windy it might be!

Date:

Astronomy

Oct. 02, 2012 Rise Set
Actual Time 6:57 AM PDT 6:34 PM PDT
Civil Twilight 6:27 AM PDT 7:03 PM PDT
Nautical Twilight 5:53 AM PDT 7:38 PM PDT
Astronomical Twilight 5:18 AM PDT 8:13 PM PDT
Moon 7:38 PM PDT (10/2) 9:39 AM PDT (10/2)
Length of Visible Light 12h 36m
Length of Day
11h 36m
Waning Gibbous, 93% of the Moon is Illuminated
Oct 2
Waning Gibbous
Oct 8
Last Quarter
Oct 15
New
Oct 21
First Quarter
Oct 29
Full

Hourly Weather History & Observations

Time (PDT) Temp. Dew Point Humidity Pressure Visibility Wind Dir Wind Speed Gust Speed Precip Events Conditions
12:53 AM 61.0 °F 46.0 °F 58% 29.94 in 10.0 mi SSW 5.8 mph - N/A   Clear
1:53 AM 55.0 °F 46.0 °F 72% 29.96 in 10.0 mi South 3.5 mph - N/A   Clear
2:53 AM 63.0 °F 50.0 °F 63% 29.95 in 10.0 mi SW 8.1 mph - N/A   Clear
3:53 AM 59.0 °F 50.0 °F 72% 29.96 in 10.0 mi West 5.8 mph - N/A   Clear
4:53 AM 54.0 °F 48.9 °F 83% 29.97 in 10.0 mi Calm Calm - N/A   Clear
5:53 AM 62.1 °F 53.1 °F 72% 29.98 in 10.0 mi SW 8.1 mph - N/A   Clear
6:53 AM 57.0 °F 51.1 °F 81% 30.00 in 10.0 mi SSW 6.9 mph - N/A   Clear
7:53 AM 61.0 °F 51.1 °F 70% 30.01 in 10.0 mi WSW 5.8 mph - N/A   Clear
8:53 AM 64.9 °F 50.0 °F 58% 30.02 in 10.0 mi West 9.2 mph - N/A   Clear
9:53 AM 66.9 °F 48.0 °F 51% 30.03 in 10.0 mi West 10.4 mph - N/A   Clear
10:53 AM 70.0 °F 46.9 °F 44% 30.01 in 10.0 mi West 9.2 mph - N/A   Clear
11:53 AM 73.0 °F 46.0 °F 38% 29.99 in 10.0 mi SW 6.9 mph - N/A   Clear
12:53 PM 73.9 °F 39.0 °F 28% 29.97 in 10.0 mi West 11.5 mph 17.3 mph N/A   Clear
1:53 PM 77.0 °F 39.0 °F 25% 29.95 in 10.0 mi West 11.5 mph - N/A   Clear
2:53 PM 79.0 °F 34.0 °F 20% 29.92 in 10.0 mi WSW 11.5 mph - N/A   Clear
3:53 PM 79.0 °F 33.1 °F 19% 29.91 in 10.0 mi West 11.5 mph - N/A   Clear
4:53 PM 78.1 °F 27.0 °F 15% 29.91 in 10.0 mi West 11.5 mph - N/A   Clear
5:53 PM 73.9 °F 33.1 °F 22% 29.90 in 10.0 mi WSW 5.8 mph - N/A   Clear
6:53 PM 70.0 °F 28.0 °F 21% 29.97 in 6.0 mi NNE 13.8 mph 23.0 mph N/A   Haze
7:01 PM 68.0 °F 30.2 °F 24% 29.99 in 4.0 mi NNE 13.8 mph 25.3 mph N/A   Haze
7:18 PM 64.4 °F 28.4 °F 26% 30.01 in 1.8 mi NE 16.1 mph 28.8 mph N/A   Haze
7:38 PM 64.4 °F 26.6 °F 24% 30.02 in 2.0 mi NNE 23.0 mph 33.4 mph N/A   Haze
7:53 PM 63.0 °F 25.0 °F 24% 30.04 in 2.0 mi NNE 21.9 mph 34.5 mph N/A   Haze
8:51 PM 60.8 °F 19.4 °F 20% 30.10 in 3.0 mi NNE 20.7 mph 34.5 mph N/A   Haze
8:53 PM 60.1 °F 19.0 °F 20% 30.10 in 3.0 mi NNE 20.7 mph 34.5 mph N/A   Haze
9:02 PM 59.0 °F 17.6 °F 20% 30.12 in 3.0 mi NE 29.9 mph 39.1 mph N/A   Haze
9:53 PM 57.0 °F 19.0 °F 23% 30.15 in 6.0 mi NNE 19.6 mph 31.1 mph N/A   Haze
10:53 PM 55.0 °F 18.0 °F 23% 30.20 in 10.0 mi NNE 10.4 mph - N/A   Overcast
11:17 PM 55.4 °F 17.6 °F 23% 30.23 in 8.0 mi NNE 10.4 mph - N/A   Overcast
11:53 PM 52.0 °F 18.0 °F 26% 30.23 in 10.0 mi NE 6.9 mph - N/A   Overcast